Regional Weather Roundup
Issued by NWS

Home | Current Version | Previous Version | Graphics & Text | Print | Product List | Glossary On
Versions: 1 2 3 4 5 6 7 8 9 10 11 12 13 14 15 16 17 18 19 20 21 22 23 24 25 26 27 28 29 30 31 32 33 34 35 36 37 38 39 40 41 42 43 44 45 46 47 48 49 50
000
ASUS43 KMPX 261110
RWRMN
WEATHER ROUNDUP FOR MINNESOTA
NATIONAL WEATHER SERVICE TWIN CITIES/CHANHASSEN MN
600 AM CDT TUE SEP 26 2017


NOTE: "FAIR" INDICATES FEW OR NO CLOUDS BELOW 12,000 FEET WITH NO
SIGNIFICANT WEATHER AND/OR OBSTRUCTIONS TO VISIBILITY. N/A MEANS
CURRENT SKY AND/OR WEATHER CONDITIONS ARE NOT AVAILABLE.

MNZ060>063-068>070-261200-
   Twin Cities Metro

CITY           SKY/WX    TMP DP  RH WIND       PRES   REMARKS
TWIN CITIES    LGT RAIN  58  58 100 NW8       29.92R
ST PAUL        LGT RAIN  59  59 100 W6        29.91S
CRYSTAL        LGT RAIN  57  54  89 W6        29.91S
BLAINE         LGT RAIN  57  57 100 W7        29.91S
LAKEVILLE      LGT RAIN  57  57 100 W5        29.92R
EDEN PRAIRIE   LGT RAIN  58  56  93 NW6       29.91S
SOUTH ST PAUL  LGT RAIN  59  59  98 CALM      29.91R
LAKE ELMO      LGT RAIN  59  57  94 W3        29.91F
$$
MNZ001>005-007-008-013>017-022>024-027-028-261200-
   Northwest Minnesota

CITY           SKY/WX    TMP DP  RH WIND       PRES   REMARKS
BEMIDJI        LGT RAIN  49  48  99 N7        30.00F
HALLOCK          N/A     48  48 100 N6        30.08F
ROSEAU         DRIZZLE   50  45  81 N5        30.07F
WARROAD        CLOUDY    52  46  82 NW6       30.07S
THIEF RVR FALL LGT RAIN  49  48  97 N9        30.05F
CROOKSTON      RAIN      48  48 100 NE7       30.04F
FOSSTON        DRIZZLE   48  46  93 N9        30.02F
DETROIT LAKES  DRIZZLE   50  48  93 N6        30.02S
MOORHEAD       LGT RAIN  50  48  93 N7        30.03S
PARK RAPIDS    CLOUDY    51  49  92 N10       29.97F
MAHNOMEN       CLOUDY    49  48  98 N8        30.01F
$$
MNZ006-009>011-018-025>026-261200-
   North Central Minnesota

CITY           SKY/WX    TMP DP  RH WIND       PRES   REMARKS
BAUDETTE       LGT RAIN  50  48  93 N8        30.05S
FLAG ISLAND    CLOUDY    52  46  82 NE12      30.05F
INTL FALLS     LGT RAIN  51  47  86 VRB7      30.01S
WASKISH        LGT RAIN  48  48 100 N5        30.03F
BIG FORK       RAIN      52  48  87 N3        30.00R
LONGVILLE      LGT RAIN  52  52 100 N5        29.97S
GRAND RAPIDS   RAIN      51  51 100 N7        29.98S FOG
CRANE LAKE     DRIZZLE   48  48 100 CALM      30.01F
ORR            DRIZZLE   50  46  87 CALM      29.97S
WALKER         DRIZZLE   50  49  98 N7        29.98F
$$
MNZ012-019>021-037-261200-
   Northeast Minnesota

CITY           SKY/WX    TMP DP  RH WIND       PRES   REMARKS
DULUTH         LGT RAIN  53  53 100 E15       29.92S FOG
ELY            LGT RAIN  50  50 100 NE6       29.96F
HIBBING        RAIN      51  50  96 N5        29.95F FOG
EVELETH        RAIN      53  51  95 NE7       29.96F
GRAND MARAIS     N/A     53  52  96 VRB3      29.95F
$$
MNZ029>031-032-039>041-046>048-054>057-064-261200-
   West Central Minnesota

CITY           SKY/WX    TMP DP  RH WIND       PRES   REMARKS
FERGUS FALLS   CLOUDY    52  52 100 N5        30.01S
WHEATON        RAIN      50  48  93 NW8       30.03F
ALEXANDRIA     LGT RAIN  52  52 100 N8        29.98F
ELBOW LAKE     DRIZZLE   51  51 100 NW7       30.00F
WADENA         CLOUDY    50  50 100 NW6       29.98R
GLENWOOD       CLOUDY    52  52 100 N8        29.97F
APPLETON       RAIN      54  50  87 N9        29.99S
BENSON         CLOUDY    54  52  94 N9        30.00R
ORTONVILLE     CLOUDY    52  48  87 N6        30.00S
MADISON        DRIZZLE   54  54 100 NW7       30.00S
WILLMAR        CLOUDY    54  54 100 NW7       29.98R
$$
MNZ033>034-036-042>043-049>051-058-059-261200-
   Central Minnesota

CITY           SKY/WX    TMP DP  RH WIND       PRES   REMARKS
ST CLOUD       LGT RAIN  54  54 100 N7        29.93F
SAUK CENTRE    LGT RAIN  52  51  97 NW6       29.96S
PAYNESVILLE    DRIZZLE   53  53  99 NW3       29.96R
AITKIN         RAIN      52  50  93 N6        29.93F
PINE RIVER     LGT RAIN  50  48  93 N8        29.98F
BRAINERD       LGT RAIN  53  52  96 N8        29.95F
STAPLES        DRIZZLE   50  50 100 N7        29.96S
LITTLE FALLS   RAIN      52  50  93 N3        29.94F
LITCHFIELD     DRIZZLE   55  55 100 NW6       29.96R
BUFFALO        RAIN      56  54  93 CALM      29.94F
MAPLE LAKE     RAIN      56  55  99 NW5       29.94S
HUTCHINSON     CLOUDY    56  56  99 W5        29.96S
$$
MNZ037-044-045-052-053-261200-
   East Central Minnesota

CITY           SKY/WX    TMP DP  RH WIND       PRES   REMARKS
PRINCETON      LGT RAIN  57  55  94 W5        29.92S
MORA           LGT RAIN  52  52 100 NW7       29.92F
RUSH CITY      RAIN      56  55  95 CALM      29.91S
MOOSE LAKE     DRIZZLE   54  54 100 NE3       29.89F
HINCKLEY       RAIN      55  55 100 CALM      29.90F
CLOQUET        CLOUDY    54  52  94 E7        29.92S
MCGREGOR       CLOUDY    54  52  94 N5        29.94R
$$
MNZ071>073-080-081-089-090-097-098-261200-
   Southwest Minnesota

CITY           SKY/WX    TMP DP  RH WIND       PRES   REMARKS
MONTEVIDEO     DRIZZLE   52  52 100 N7        29.99R
GRANITE FALLS  CLOUDY    54  54  98 W6        30.00R
CANBY          CLOUDY    51  50  97 NW7       30.03R
MARSHALL       LGT RAIN  51  50  96 NW8       30.00R
REDWOOD FALLS  CLOUDY    55  53  93 NW8       29.97R
OLIVIA         CLOUDY    54  52  94 NW7       29.96S
PIPESTONE      DRIZZLE   52  48  87 NW7       30.01S
WORTHINGTON    CLOUDY    51  50  96 NW9       29.99F
JACKSON        DRIZZLE   52  52 100 NW8       29.98S
TRACY          DRIZZLE   52  52 100 NW6       29.99F
SLAYTON        CLOUDY    50  43  77 NW7       30.01S
$$
MNZ065>067-074>077-082>085-091>093-261200-
   South Central Minnesota

CITY           SKY/WX    TMP DP  RH WIND       PRES   REMARKS
MANKATO        LGT RAIN  56  55  97 NW12      29.94R
NEW ULM        LGT RAIN  55  54  94 NW5       29.95S
ST JAMES       DRIZZLE   55  55 100 NW6       29.97R
FAIRMONT       CLOUDY    56  55  97 NW12      29.96R FOG
FARIBAULT      LGT RAIN  59  57  94 CALM      29.92S
OWATONNA       LGT RAIN  61  59  94 W3        29.91F
WASECA         RAIN      55  55 100 W5        29.93S
ALBERT LEA     RAIN      64  64 100 CALM      29.91S
$$
MNZ078>079-086>088-094>096-261200-
   Southeast Minnesota

CITY           SKY/WX    TMP DP  RH WIND       PRES   REMARKS
ROCHESTER      LGT RAIN  63  63 100 S3        29.92F VSB 1/4
RED WING       LGT RAIN  61  59  94 CALM      29.89S
STANTON        DRIZZLE   60  58  94 CALM      29.90S
DODGE CENTER   LGT RAIN  61  61 100 CALM      29.91F
WINONA         CLOUDY    66  64  94 CALM      29.91R
AUSTIN         LGT RAIN  63  63 100 CALM      29.91R
PRESTON        LGT RAIN  63  61  96 SW5       29.92F
$$
ABBREVIATIONS USED IN REMARKS
   TC - TEMPERATURES IN CELSIUS
  WCI - WIND CHILL INDEX
   HX - HEAT INDEX
  VSB - VISIBILITY
$$




USA.gov is the U.S. government's official web portal to all federal, state and local government web resources and services.